TimeEDT,TemperatureF,Dew PointF,Humidity,Sea Level PressureIn,VisibilityMPH,Wind Direction,Wind SpeedMPH,Gust SpeedMPH,PrecipitationIn,Events,Conditions,WindDirDegrees,DateUTC
12:53 AM,43.0,43.0,100,30.21,10.0,Calm,Calm,-,N/A,,Clear,0,2013-09-19 04:53:00
1:53 AM,43.0,42.1,97,30.21,10.0,Calm,Calm,-,N/A,,Clear,0,2013-09-19 05:53:00
2:53 AM,42.1,39.9,92,30.19,10.0,Calm,Calm,-,N/A,,Clear,0,2013-09-19 06:53:00
3:53 AM,41.0,41.0,100,30.19,10.0,Calm,Calm,-,N/A,,Clear,0,2013-09-19 07:53:00
4:53 AM,39.9,39.9,100,30.19,10.0,Calm,Calm,-,N/A,,Clear,0,2013-09-19 08:53:00
5:53 AM,39.0,39.0,100,30.19,10.0,Calm,Calm,-,N/A,,Clear,0,2013-09-19 09:53:00
6:53 AM,37.9,37.9,100,30.20,10.0,Calm,Calm,-,N/A,,Clear,0,2013-09-19 10:53:00
7:53 AM,42.1,42.1,100,30.19,10.0,Calm,Calm,-,N/A,,Clear,0,2013-09-19 11:53:00
8:53 AM,50.0,48.9,96,30.19,10.0,SSW,3.5,-,N/A,,Clear,210,2013-09-19 12:53:00
9:53 AM,57.9,50.0,75,30.19,10.0,Calm,Calm,-,N/A,,Clear,0,2013-09-19 13:53:00
10:53 AM,63.0,51.1,65,30.18,10.0,Calm,Calm,-,N/A,,Clear,0,2013-09-19 14:53:00
11:53 AM,68.0,53.1,59,30.16,10.0,Variable,3.5,-,N/A,,Clear,0,2013-09-19 15:53:00
12:53 PM,71.1,50.0,47,30.15,10.0,Variable,3.5,-,N/A,,Clear,0,2013-09-19 16:53:00
1:53 PM,73.0,46.9,39,30.12,10.0,Variable,3.5,-,N/A,,Clear,0,2013-09-19 17:53:00
2:53 PM,73.0,48.9,42,30.11,10.0,Variable,3.5,-,N/A,,Clear,0,2013-09-19 18:53:00
3:53 PM,73.0,46.9,39,30.09,10.0,Variable,4.6,-,N/A,,Clear,0,2013-09-19 19:53:00
4:53 PM,73.0,46.9,39,30.08,10.0,SW,4.6,-,N/A,,Clear,230,2013-09-19 20:53:00
5:53 PM,71.1,52.0,51,30.09,10.0,Calm,Calm,-,N/A,,Clear,0,2013-09-19 21:53:00
6:53 PM,64.0,53.1,67,30.09,10.0,Calm,Calm,-,N/A,,Clear,0,2013-09-19 22:53:00
7:53 PM,57.9,55.0,90,30.11,10.0,Calm,Calm,-,N/A,,Clear,0,2013-09-19 23:53:00
8:53 PM,53.1,52.0,96,30.12,8.0,Calm,Calm,-,N/A,,Clear,0,2013-09-20 00:53:00
9:47 PM,51.8,51.8,100,30.11,1.8,Calm,Calm,-,N/A,,Clear,0,2013-09-20 01:47:00
9:53 PM,51.1,51.1,100,30.11,2.0,Calm,Calm,-,N/A,,Clear,0,2013-09-20 01:53:00
10:04 PM,51.8,50.0,94,30.10,1.5,Calm,Calm,-,N/A,,Clear,0,2013-09-20 02:04:00
10:14 PM,51.8,50.0,94,30.10,2.5,Calm,Calm,-,N/A,,Clear,0,2013-09-20 02:14:00
10:22 PM,51.8,51.8,100,30.10,9.0,Calm,Calm,-,N/A,,Clear,0,2013-09-20 02:22:00
10:53 PM,51.1,50.0,96,30.10,10.0,Calm,Calm,-,N/A,,Clear,0,2013-09-20 02:53:00
11:13 PM,50.0,48.2,94,30.10,2.0,Calm,Calm,-,N/A,,Clear,0,2013-09-20 03:13:00
11:22 PM,48.2,48.2,100,30.10,9.0,Calm,Calm,-,N/A,,Clear,0,2013-09-20 03:22:00
11:53 PM,48.9,48.0,97,30.09,9.0,Calm,Calm,-,N/A,,Clear,0,2013-09-20 03:53:00